Flag for Venezuela Weather past 2 weeks in Maracay, Venezuela

Now
90 °F

Partly sunny.


Feels Like: 111 °F
Forecast: 70 / 87 °F
Wind: N/A

Location: Maracay-B. A. Sucre

Current Time: Jul 28, 2014 at 3:17:29 PM

Latest Report: Jul 28, 2014 at 2:30 PM


Visibility: N/A

Pressure: 30.01 "Hg

Humidity: 79%

Dew point: 82 °F

Location of MaracayLocation

Historic Weather in Maracay — Graph

°F

Maracay temperature yesterday

Maximum temperature yesterday: 86 °F (at 11:30 AM)
Minimum temperature yesterday: 72 °F (at 4:30 AM)
Average temperature yesterday: 79 °F

Past Weeks' High & Low Weather Summary

 TemperatureHumidityPressure
High97 °F (Jul 17, 2:30 PM)100% (Jul 14, 7:30 AM)30.15 "Hg (Jul 14, 7:30 AM)
Low72 °F (Jul 16, 5:30 AM)56% (Jul 17, 2:30 PM)29.89 "Hg (Jul 18, 9:30 AM)
Average81 °F82%30.04 "Hg
* Reported Jul 13 1:30 PM — Jul 28 1:30 PM, Maracay, Weather by CustomWeather, © 2014

Note: Actual official high and low records may vary slightly from our data, if they occured in-between our weather recording intervals... More about our weather records

Advertising

Maracay weather history for previous 24 hours

 ConditionsComfort  
Time TempWeatherWind HumidityBarometerVisibility
1:30 PM
Jul 28
90 °FScattered clouds.N/A75%30.04 "HgN/A
12:30 PM86 °FPartly sunny.N/A84%30.07 "HgN/A
11:30 AM86 °FPartly sunny.N/A75%30.12 "HgN/A
10:30 AM82 °FPartly sunny.N/A89%30.12 "HgN/A
9:30 AM82 °FPartly sunny.N/A84%30.12 "HgN/A
8:30 AM79 °FScattered clouds.N/A84%30.09 "HgN/A
7:30 AM73 °FScattered clouds.N/A94%30.09 "HgN/A
6:30 AM72 °FPartly sunny.N/A100%30.09 "HgN/A
5:30 AM72 °FPartly sunny.N/A94%30.04 "HgN/A
4:30 AM73 °FPassing clouds.N/A94%30.04 "HgN/A
1:30 AM73 °FPassing clouds.N/A94%30.09 "HgN/A
10:30 PM
Jul 27
75 °FPassing clouds.N/A94%30.12 "HgN/A
9:30 PM75 °FPassing clouds.N/A89%30.09 "HgN/A
7:30 PM77 °FPassing clouds.N/A83%30.04 "HgN/A
6:30 PM82 °FPassing clouds.N/A74%30.01 "HgN/A
5:30 PM82 °FScattered clouds.N/A70%30.01 "HgN/A
4:30 PM86 °FScattered clouds.N/A66%30.01 "HgN/A
3:30 PM84 °FPartly sunny.N/A84%30.07 "HgN/A
Weather by CustomWeather, © 2014

See weather overviewHow to use our weather pages